DW8871 Weather Reports


Display with metric or nautical units.
time (UTC)temp
F
wind
direction
speed
MPH
gust
MPH
rain 1hr
in
rain 24hr
in
rain mn
in
humidity
%
barometer
mb
20260503033036 49 0 0.0 1.0 0.00 0.00 0.00 69 1018.1
20260503031530 49 0 0.0 0.0 0.00 0.00 0.00 73 1018.2
20260503030044 49 0 0.0 0.0 0.00 0.00 0.00 72 1018.2
20260503030029 49 284 0.0 0.0 0.00 0.00 0.00 73 1017.2
20260503024529 49 0 0.0 0.0 0.00 0.00 0.00 74 1018.1
20260503023032 49 0 0.0 1.0 0.00 0.00 0.00 73 1018.3
20260503021528 50 0 0.0 0.0 0.00 0.00 0.00 71 1018.3
20260503020035 52 284 0.0 0.0 0.00 0.00 0.00 66 1017.3
20260503020030 52 0 0.0 0.0 0.00 0.00 0.00 65 1018.3
20260503014528 53 0 0.0 0.0 0.00 0.00 0.00 59 1018.1
20260503013036 55 0 0.0 0.0 0.00 0.00 0.00 53 1018.1
20260503011531 58 0 0.0 0.0 0.00 0.00 0.00 54 1018.1
20260503010034 60 0 0.0 1.0 0.00 0.00 0.00 45 1018.1
20260503010024 60 284 0.0 1.0 0.00 0.00 0.00 46 1017.2
20260503004554 62 0 0.0 2.0 0.00 0.00 0.00 43 1018.2
20260503003030 63 281 1.0 4.0 0.00 0.00 0.00 33 1018.1
20260503001534 63 260 1.0 5.0 0.00 0.00 0.00 33 1018.3
20260503000043 63 282 2.0 5.0 0.00 0.00 0.00 35 1017.5
20260503000031 63 282 1.0 5.0 0.00 0.00 0.00 34 1018.5
20260502234537 64 253 2.0 5.0 0.00 0.00 0.00 33 1018.4
20260502233032 65 0 0.0 9.0 0.00 0.00 0.00 31 1018.5
20260502231530 65 288 0.0 6.0 0.00 0.00 0.00 32 1018.5
20260502230033 65 309 1.0 8.0 0.00 0.00 0.00 30 1018.7
20260502224527 66 258 1.0 6.0 0.00 0.00 0.00 30 1018.8
20260502223030 65 0 1.0 7.0 0.00 0.00 0.00 32 1018.8
20260502221532 65 304 1.0 4.0 0.00 0.00 0.00 31 1018.8
20260502220032 65 0 0.0 8.0 0.00 0.00 0.00 36 1019.1
20260502220024 65 332 1.0 4.0 0.00 0.00 0.00 36 1018.1
20260502214529 64 274 2.0 8.0 0.00 0.00 0.00 33 1019.2
20260502213030 64 238 3.0 9.0 0.00 0.00 0.00 32 1019.3
20260502211533 64 0 1.0 4.0 0.00 0.00 0.00 31 1019.4
20260502210045 64 5 1.0 8.0 0.00 0.00 0.00 35 1018.6
20260502210030 64 0 0.0 8.0 0.00 0.00 0.00 34 1019.6
20260502204530 64 0 2.0 6.0 0.00 0.00 0.00 34 1019.8
20260502203031 64 53 1.0 6.0 0.00 0.00 0.00 39 1019.8
20260502201533 63 51 1.0 7.0 0.00 0.00 0.00 35 1020.1
20260502200036 63 237 1.0 7.0 0.00 0.00 0.00 37 1019.2
20260502200028 63 275 1.0 7.0 0.00 0.00 0.00 37 1020.2
20260502194530 62 0 1.0 6.0 0.00 0.00 0.00 38 1020.2
20260502193032 62 22 0.0 6.0 0.00 0.00 0.00 38 1020.4
20260502191531 62 83 3.0 10.0 0.00 0.00 0.00 35 1020.6
20260502190037 61 49 1.0 7.0 0.00 0.00 0.00 41 1020.9
20260502190024 62 49 2.0 7.0 0.00 0.00 0.00 42 1019.9
20260502184537 61 223 1.0 6.0 0.00 0.00 0.00 34 1021.0
20260502183040 60 292 3.0 8.0 0.00 0.00 0.00 37 1021.1
20260502181539 60 279 0.0 8.0 0.00 0.00 0.00 38 1021.3
20260502163032 59 0 0.0 5.0 0.00 0.00 0.00 39 1022.1
20260502161529 57 200 1.0 5.0 0.00 0.00 0.00 42 1022.2
20260502151534 57 64 2.0 7.0 0.00 0.00 0.00 49 1022.1
20260502123035 36 0 0.0 0.0 0.00 0.00 0.00 89 1021.4
20260502121541 34 0 0.0 0.0 0.00 0.00 0.00 88 1021.3
20260502114532 34 0 0.0 0.0 0.00 0.00 0.00 87 1020.9
20260502113028 34 0 0.0 0.0 0.00 0.00 0.00 86 1020.7
20260502111530 35 0 0.0 0.0 0.00 0.00 0.00 86 1020.6
20260502110032 35 0 0.0 0.0 0.00 0.00 0.00 85 1020.6
20260502110020 36 49 0.0 0.0 0.00 0.00 0.00 85 1019.7
20260502104531 35 0 0.0 0.0 0.00 0.00 0.00 84 1020.6
20260502103038 36 0 0.0 0.0 0.00 0.00 0.00 83 1020.4
20260502101541 36 0 0.0 0.0 0.00 0.00 0.00 83 1020.3
20260502091530 37 0 0.0 0.0 0.00 0.00 0.00 80 1020.0
20260502071530 41 0 0.0 2.0 0.00 0.00 0.00 69 1019.5
20260502070030 41 0 0.0 1.0 0.00 0.00 0.00 70 1019.6
20260502070027 41 49 0.0 0.0 0.00 0.00 0.00 71 1018.7
20260502064532 41 0 0.0 2.0 0.00 0.00 0.00 72 1019.7
20260502063030 41 0 0.0 1.0 0.00 0.00 0.00 73 1019.7
20260502061529 41 0 0.0 2.0 0.00 0.00 0.00 75 1019.7
20260502060029 41 0 0.0 0.0 0.00 0.00 0.00 73 1019.8
20260502060018 41 66 0.0 0.0 0.00 0.00 0.00 74 1018.9
20260502054532 41 0 0.0 1.0 0.00 0.00 0.00 73 1019.8
20260502053030 42 0 0.0 0.0 0.00 0.00 0.00 71 1019.7
20260502051533 42 0 0.0 0.0 0.00 0.00 0.00 70 1019.8
20260502050037 43 0 0.0 0.0 0.00 0.00 0.00 69 1019.7
20260502050028 43 66 0.0 0.0 0.00 0.00 0.00 69 1018.7
20260502044531 44 0 0.0 0.0 0.00 0.00 0.00 69 1019.7
20260502043029 44 0 0.0 1.0 0.00 0.00 0.00 69 1019.6
20260502041545 44 0 0.0 0.0 0.00 0.00 0.00 70 1019.5
20260502040028 45 0 0.0 0.0 0.00 0.00 0.00 70 1019.5
20260502040017 45 66 0.0 0.0 0.00 0.00 0.00 70 1018.4
20260502034530 45 0 0.0 0.0 0.00 0.00 0.00 69 1019.3